Regional Weather Roundup
Issued by NWS Charleston, WV

Home | Current Version | Previous Version | Graphics & Text | Print | Product List | Glossary On
Versions: 1 2 3 4 5 6 7 8 9 10 11 12 13 14 15 16 17 18 19 20 21 22 23 24 25 26 27 28 29 30 31 32 33 34 35 36 37 38 39 40 41 42 43 44 45 46 47 48 49 50
252
ASUS41 KRLX 270510
RWRRLX
CRWRWRRLX ALL
West Virginia Regional Weather Roundup
National Weather Service Charleston WV
Issued by National Weather Service Pittsburgh PA
100 AM EDT MON MAR 27 2017

Note: "fair" indicates few or no clouds below 12,000 feet with no
significant weather and/or obstructions to visibility.

WVZ003-270600-
Northern Panhandle of West Virginia

CITY           SKY/WX    TMP DP  RH WIND       PRES   REMARKS
WHEELING       LGT RAIN  56  53  90 S10       29.95S
$$

WVZ009-270600-
Northwest West Virginia

CITY           SKY/WX    TMP DP  RH WIND       PRES   REMARKS
PARKERSBURG    PTCLDY    56  54  93 S7        29.99F
$$

WVZ006-270600-
Western West Virginia

CITY           SKY/WX    TMP DP  RH WIND       PRES   REMARKS
HUNTINGTON     CLOUDY    59  55  87 S8        29.98S
$$

WVZ015-270600-
West Central West Virginia

CITY           SKY/WX    TMP DP  RH WIND       PRES   REMARKS
CHARLESTON     CLOUDY    59  56  89 VRB3      30.00S
$$

WVZ031-270600-
North Central West Virginia

CITY           SKY/WX    TMP DP  RH WIND       PRES   REMARKS
CLARKSBURG     LGT RAIN  56  55  97 SE5       30.00S FOG
MORGANTOWN     LGT RAIN  56  51  84 S8        30.00F
$$

WVZ035-042-270600-
South Central West Virginia

CITY           SKY/WX    TMP DP  RH WIND       PRES   REMARKS
BECKLEY        CLOUDY    56  52  86 S8        30.07R
BLUEFIELD      NOT AVBL
$$

WVZ045-270600-
Greenbrier Valley of West Virginia

CITY           SKY/WX    TMP DP  RH WIND       PRES   REMARKS
LEWISBURG      MOCLDY    56  51  82 S8        30.07F
$$

WVZ047-270600-
Northern Mountains of West Virginia

CITY           SKY/WX    TMP DP  RH WIND       PRES   REMARKS
ELKINS         MOCLDY    55  51  86 S7        30.02F
$$

WVZ052-270600-
Eastern Panhandle of West Virginia

CITY           SKY/WX    TMP DP  RH WIND       PRES   REMARKS
MARTINSBURG    CLOUDY    45  44  97 E5        30.14F FOG
PETERSBURG     RAIN      49  47  94 CALM      30.11F
$$




USA.gov is the U.S. government's official web portal to all federal, state and local government web resources and services.